TimeCDT,TemperatureF,Dew PointF,Humidity,Sea Level PressureIn,VisibilityMPH,Wind Direction,Wind SpeedMPH,Gust SpeedMPH,PrecipitationIn,Events,Conditions,WindDirDegrees,DateUTC
12:15 AM,71.2,56.5,60,29.96,10.0,SE,4.6,-,N/A,,Clear,130,2012-08-22 05:15:00
12:35 AM,69.8,56.5,63,29.96,10.0,SE,4.6,-,N/A,,Clear,130,2012-08-22 05:35:00
12:55 AM,68.9,56.3,64,29.96,10.0,SE,6.9,-,N/A,,Clear,130,2012-08-22 05:55:00
1:15 AM,69.1,55.9,63,29.96,10.0,SE,6.9,-,N/A,,Clear,130,2012-08-22 06:15:00
1:35 AM,68.2,55.4,64,29.96,10.0,ESE,4.6,-,N/A,,Clear,120,2012-08-22 06:35:00
1:55 AM,68.2,54.5,62,29.96,10.0,SE,4.6,-,N/A,,Clear,130,2012-08-22 06:55:00
2:15 AM,69.8,54.0,57,29.96,10.0,Calm,Calm,-,N/A,,Clear,0,2012-08-22 07:15:00
2:35 AM,66.9,55.4,66,29.97,10.0,ENE,4.6,-,N/A,,Clear,60,2012-08-22 07:35:00
2:55 AM,67.5,55.0,64,29.97,10.0,East,3.5,-,N/A,,Clear,90,2012-08-22 07:55:00
3:15 AM,65.8,54.7,67,29.97,10.0,Calm,Calm,-,N/A,,Clear,0,2012-08-22 08:15:00
3:35 AM,66.2,54.7,66,29.96,10.0,Calm,Calm,-,N/A,,Clear,0,2012-08-22 08:35:00
3:55 AM,65.5,54.3,67,29.96,10.0,Calm,Calm,-,N/A,,Clear,0,2012-08-22 08:55:00
4:15 AM,66.7,54.0,63,29.96,10.0,Calm,Calm,-,N/A,,Clear,0,2012-08-22 09:15:00
4:35 AM,64.8,53.8,68,29.96,10.0,Calm,Calm,-,N/A,,Clear,0,2012-08-22 09:35:00
4:55 AM,62.6,54.1,74,29.96,10.0,Calm,Calm,-,N/A,,Clear,0,2012-08-22 09:55:00
5:15 AM,61.0,54.1,78,29.97,10.0,Calm,Calm,-,N/A,,Clear,0,2012-08-22 10:15:00
5:35 AM,60.6,54.5,80,29.97,10.0,Calm,Calm,-,N/A,,Clear,0,2012-08-22 10:35:00
5:55 AM,64.4,52.9,66,29.98,10.0,South,4.6,-,N/A,,Clear,190,2012-08-22 10:55:00
6:15 AM,61.9,53.8,75,29.98,10.0,SSE,4.6,-,N/A,,Clear,150,2012-08-22 11:15:00
6:35 AM,59.5,53.8,81,29.98,10.0,SSE,3.5,-,N/A,,Clear,150,2012-08-22 11:35:00
6:55 AM,61.3,54.1,77,29.99,10.0,Calm,Calm,-,N/A,,Clear,0,2012-08-22 11:55:00
7:15 AM,62.2,53.6,73,29.99,10.0,Calm,Calm,-,N/A,,Clear,0,2012-08-22 12:15:00
7:35 AM,62.1,55.2,78,29.99,10.0,SSE,4.6,-,N/A,,Clear,150,2012-08-22 12:35:00
7:55 AM,65.7,54.9,68,29.99,10.0,Calm,Calm,-,N/A,,Clear,0,2012-08-22 12:55:00
8:15 AM,68.7,55.2,62,29.99,10.0,Calm,Calm,-,N/A,,Clear,0,2012-08-22 13:15:00
8:35 AM,72.0,55.6,56,29.99,10.0,Calm,Calm,-,N/A,,Clear,0,2012-08-22 13:35:00
8:55 AM,74.5,55.4,51,29.99,10.0,South,6.9,-,N/A,,Clear,190,2012-08-22 13:55:00
9:15 AM,76.1,56.1,50,29.99,10.0,SSW,3.5,-,N/A,,Clear,200,2012-08-22 14:15:00
9:35 AM,77.0,56.8,50,29.99,10.0,South,4.6,-,N/A,,Clear,180,2012-08-22 14:35:00
9:55 AM,78.1,57.7,49,29.99,10.0,SSW,5.8,-,N/A,,Clear,200,2012-08-22 14:55:00
10:15 AM,79.7,59.2,49,30.00,10.0,South,10.4,-,N/A,,Clear,190,2012-08-22 15:15:00
10:35 AM,81.9,60.1,47,29.99,10.0,SSW,9.2,-,N/A,,Clear,200,2012-08-22 15:35:00
10:55 AM,84.9,60.8,44,29.99,10.0,SSW,10.4,-,N/A,,Clear,200,2012-08-22 15:55:00
11:15 AM,86.9,60.8,41,29.99,10.0,SSW,10.4,-,N/A,,Clear,200,2012-08-22 16:15:00
11:35 AM,88.7,60.4,39,29.99,10.0,SSW,13.8,19.6,N/A,,Clear,200,2012-08-22 16:35:00
11:55 AM,89.1,59.7,37,29.98,10.0,SSW,16.1,20.7,N/A,,Clear,210,2012-08-22 16:55:00
12:15 PM,89.8,57.2,33,29.98,10.0,SSW,17.3,25.3,N/A,,Clear,210,2012-08-22 17:15:00
12:35 PM,90.5,56.5,32,29.97,10.0,SW,16.1,23.0,N/A,,Clear,220,2012-08-22 17:35:00
12:55 PM,90.3,55.9,31,29.97,10.0,SW,15.0,27.6,N/A,,Clear,220,2012-08-22 17:55:00
1:15 PM,90.3,56.1,31,29.96,10.0,South,17.3,26.5,N/A,,Clear,190,2012-08-22 18:15:00
1:35 PM,91.6,56.5,30,29.95,10.0,SSW,17.3,25.3,N/A,,Clear,210,2012-08-22 18:35:00
1:55 PM,91.8,56.5,30,29.94,10.0,South,17.3,23.0,N/A,,Clear,190,2012-08-22 18:55:00
2:15 PM,92.5,55.6,29,29.94,10.0,SSW,15.0,27.6,N/A,,Clear,200,2012-08-22 19:15:00
2:55 PM,92.8,55.9,29,29.93,10.0,South,18.4,25.3,N/A,,Clear,190,2012-08-22 19:55:00
3:15 PM,93.0,55.4,28,29.93,10.0,SSW,15.0,23.0,N/A,,Clear,200,2012-08-22 20:15:00
3:35 PM,91.6,54.9,29,29.92,10.0,South,13.8,20.7,N/A,,Clear,190,2012-08-22 20:35:00
3:55 PM,90.7,54.7,29,29.92,10.0,SSW,13.8,24.2,N/A,,Clear,210,2012-08-22 20:55:00
4:15 PM,89.8,54.5,30,29.92,10.0,South,11.5,20.7,N/A,,Clear,190,2012-08-22 21:15:00
4:35 PM,89.8,55.4,31,29.92,10.0,SSW,11.5,-,N/A,,Clear,200,2012-08-22 21:35:00
4:55 PM,91.2,54.7,29,29.92,10.0,South,12.7,19.6,N/A,,Clear,190,2012-08-22 21:55:00
5:15 PM,88.7,54.1,31,29.92,10.0,SSW,11.5,18.4,N/A,,Clear,200,2012-08-22 22:15:00
5:35 PM,88.3,54.1,31,29.92,10.0,South,9.2,-,N/A,,Clear,180,2012-08-22 22:35:00
5:55 PM,88.3,55.0,32,29.91,10.0,South,10.4,-,N/A,,Clear,180,2012-08-22 22:55:00
6:15 PM,89.8,55.9,32,29.90,10.0,South,9.2,-,N/A,,Clear,180,2012-08-22 23:15:00
6:35 PM,89.4,55.8,32,29.90,10.0,South,10.4,-,N/A,,Clear,180,2012-08-22 23:35:00
6:55 PM,88.9,55.4,32,29.89,10.0,SSE,10.4,-,N/A,,Clear,160,2012-08-22 23:55:00
7:15 PM,86.7,55.4,34,29.89,10.0,SSE,8.1,-,N/A,,Clear,160,2012-08-23 00:15:00
7:35 PM,86.2,55.4,35,29.89,10.0,SSE,9.2,-,N/A,,Clear,160,2012-08-23 00:35:00
7:55 PM,85.1,54.3,35,29.89,10.0,SSE,8.1,-,N/A,,Clear,150,2012-08-23 00:55:00
8:15 PM,83.3,53.8,36,29.89,10.0,SSE,8.1,-,N/A,,Clear,150,2012-08-23 01:15:00
8:35 PM,81.9,53.8,38,29.89,10.0,SSE,10.4,-,N/A,,Clear,150,2012-08-23 01:35:00
8:55 PM,81.5,53.1,37,29.89,10.0,SSE,10.4,-,N/A,,Clear,150,2012-08-23 01:55:00
9:15 PM,80.6,52.7,38,29.90,10.0,SE,10.4,-,N/A,,Clear,140,2012-08-23 02:15:00
9:35 PM,79.9,52.2,38,29.90,10.0,SSE,10.4,-,N/A,,Clear,150,2012-08-23 02:35:00
9:55 PM,79.2,52.2,39,29.90,10.0,SSE,9.2,-,N/A,,Clear,150,2012-08-23 02:55:00
10:15 PM,79.7,52.0,38,29.90,10.0,SSE,9.2,-,N/A,,Clear,160,2012-08-23 03:15:00
10:35 PM,79.7,52.0,38,29.91,10.0,South,8.1,-,N/A,,Clear,170,2012-08-23 03:35:00
11:15 PM,79.9,52.0,38,29.92,10.0,South,10.4,17.3,N/A,,Clear,180,2012-08-23 04:15:00
11:35 PM,79.2,51.8,38,29.92,10.0,South,12.7,18.4,N/A,,Clear,180,2012-08-23 04:35:00
11:55 PM,78.4,51.3,39,29.92,10.0,South,10.4,16.1,N/A,,Clear,190,2012-08-23 04:55:00